This demonstration page uses our WeatherBlox Daily Observations layout. Learn more.

Left ArrowRight Arrow

Hourly Observations for September 3, 2018

Temp ( °F °C ) Dew Point ( °F °C ) Humidity (%) Winds ( mph kmh ) Pressure ( in mb ) Visibility ( mi km ) Precip ( " mm )
12:53 am 00:53 Clear 75 23.9 72 22.2 90 90 Calm 30.20 1023 10 16 0.00 0.00
1:53 am 01:53 Clear 73 22.8 71 21.7 94 94 Calm 30.20 1023 10 16 0.00 0.00
2:53 am 02:53 Clear 71 21.7 70 21.1 96 96 Calm 30.20 1023 8 13 0.00 0.00
3:53 am 03:53 Clear 71 21.7 69 20.6 94 94 Calm 30.20 1023 9 14 0.00 0.00
4:53 am 04:53 Clear 70 21.1 69 20.6 97 97 Calm 30.21 1023 8 13 0.00 0.00
5:53 am 05:53 Clear 70 21.1 69 20.6 97 97 Calm 30.21 1023 10 16 0.00 0.00
6:53 am 06:53 Clear 70 21.1 68 20 93 93 ESE 3 6 30.22 1024 8 13 0.00 0.00
7:53 am 07:53 Sunny with Mist and Fog 72 22.2 71 21.7 97 97 Calm 30.24 1024 6 10 0.00 0.00
8:53 am 08:53 Sunny 77 25 74 23.3 90 90 Calm 30.25 1025 10 16 0.00 0.00
9:53 am 09:53 Sunny 83 28.3 74 23.3 74 74 Calm 30.26 1025 10 16 0.00 0.00
10:53 am 10:53 Sunny 85 29.4 74 23.3 70 70 W 6 9 30.27 1025 10 16 0.00 0.00
11:53 am 11:53 Sunny 88 31.1 73 22.8 61 61 W 6 9 30.26 1025 10 16 0.00 0.00
12:53 pm 12:53 Mostly Sunny 90 32.2 71 21.7 54 54 Calm 30.25 1024 10 16 0.00 0.00
1:53 pm 13:53 Mostly Sunny 91 32.8 72 22.2 54 54 VRB 3 6 30.23 1024 10 16 0.00 0.00
2:53 pm 14:53 Sunny 92 33.3 69 20.6 47 47 Calm 30.22 1023 10 16 0.00 0.00
3:53 pm 15:53 Mostly Sunny 92 33.3 71 21.7 51 51 SSW 6 9 30.19 1022 10 16 0.00 0.00
4:53 pm 16:53 Mostly Sunny 91 32.8 71 21.7 52 52 VRB 6 9 30.18 1022 10 16 0.00 0.00
5:53 pm 17:53 Sunny 91 32.8 71 21.7 52 52 SW 6 9 30.18 1022 10 16 0.00 0.00
6:53 pm 18:53 Partly Cloudy 89 31.7 72 22.2 57 57 WSW 5 7 30.19 1022 10 16 0.00 0.00
7:41 pm 19:41 Partly Cloudy with Thunderstorms 86 30 73 22.8 65 65 SSW 3 6 30.15 1021 10 16 0.00 0.00
7:53 pm 19:53 Partly Cloudy with Thunderstorms 85 29.4 73 22.8 68 68 SSW 3 6 30.20 1023 10 16 0.00 0.00
8:05 pm 20:05 Partly Cloudy with Nearby Thunderstorms 83 28.3 74 23.3 74 74 Calm 30.15 1021 10 16 0.00 0.00
8:34 pm 20:34 Clear 81 27.2 74 23.3 79 79 Calm 30.18 1022 10 16 0.00 0.00
8:53 pm 20:53 Clear 80 26.7 73 22.8 79 79 Calm 30.21 1023 10 16 0.00 0.00
9:53 pm 21:53 Clear 75 23.9 71 21.7 88 88 Calm 30.24 1024 10 16 0.00 0.00
10:53 pm 22:53 Clear 74 23.3 71 21.7 91 91 Calm 30.24 1024 10 16 0.00 0.00
11:53 pm 23:53 Clear 73 22.8 71 21.7 94 94 Calm 30.25 1024 10 16 0.00 0.00

Powered by AerisWeather